Location: Cucq
(50.4773°N, 1.6202°E)
Time: 08:20:48
(UTC+00:00)

Cosmos 1825 Rocket - Pass Details

Date: 07 August 2020
Orbit: 604 x 631 km, 82.5° (Epoch: 26 September)

Event Time Altitude Azimuth Distance (km) Brightness Sun altitude
Rises 03:47:26 0° 349° (N) 2,890 7.4 -6.7°
Reaches altitude 10° 03:49:41 10° 350° (N) 1,977 6.5 -6.4°
Maximum altitude 03:54:04 90° 79° (E) 615 3.6 -5.8°
Drops below altitude 10° 03:58:23 10° 171° (S) 1,950 5.9 -5.2°
Sets 04:00:34 0° 172° (S) 2,847 6.7 -4.9°
